Regional Weather Roundup
Issued by NWS

Home | Current Version | Previous Version | Graphics & Text | Print | Product List | Glossary On
Versions: 1 2 3 4 5 6 7 8 9 10 11 12 13 14 15 16 17 18 19 20 21 22 23 24 25 26 27 28 29 30 31 32 33 34 35 36 37 38 39 40 41 42 43 44 45 46 47 48 49 50
000
ASUS43 KIND 220059
RWRIN

WEATHER ROUNDUP FOR INDIANA
NATIONAL WEATHER SERVICE INDIANAPOLIS IN
800 PM EST WED FEB 21 2018

NOTE: "FAIR" INDICATES FEW OR NO CLOUDS BELOW 12,000 FEET WITH NO
SIGNIFICANT WEATHER AND/OR OBSTRUCTIONS TO VISIBILITY.

* - STATION DOES NOT REPORT WEATHER SUCH AS PRECIPITATION OR FOG.

+ - STATION NOT QUALITY CONTROLLED BY THE NATIONAL WEATHER SERVICE.
    USE DATA WITH CAUTION...ESPECIALLY DEWPOINT AND RELATIVE
    HUMIDITY OBSERVATIONS.

INZ001>003-010>013-019-020-220200-
NORTHWEST INDIANA

CITY           SKY/WX    TMP DP  RH WIND       PRES   REMARKS
MONTICELLO +   CLOUDY    33  29  86 NE12      30.55S WCI  24
RENSSELAER +   FAIR      32  27  80 N14       30.59S WCI  22

$$

LMZ046-743>745-220200-
SOUTHERN LAKE MICHIGAN

STATION/POSITION TIME  TEMP    WIND        PRES    WAVE
                       AIR SEA DIR/SP/G            HT
                 (UTC) (F)     (DEG/KT/KT) (MB)    (FT)
BURNS HARBOR     0010   30      30/ 16/ 18 1036.6
MICHIGAN CITY    0030   29      10/ 17/ 18   N/A

$$

INZ004-005-014>016-021>024-220200-
NORTH CENTRAL INDIANA

CITY           SKY/WX    TMP DP  RH WIND       PRES   REMARKS
ELKHART        CLOUDY    32  28  86 CALM      30.60R
GOSHEN         MOCLDY    34  29  82 VRB6      30.58R WCI  29
SOUTH BEND     FAIR      29  26  89 N8        30.59S WCI  21
WARSAW +       MOCLDY    32  30  93 N6        30.58R WCI  26

$$

INZ006>009-017-018-025>027-220200-
NORTHEAST INDIANA

CITY           SKY/WX    TMP DP  RH WIND       PRES   REMARKS
AUBURN +       MOCLDY    36  32  87 N5        30.58R WCI  32
FORT WAYNE     CLOUDY    38  33  82 N6        30.56R WCI  33
KENDALLVILLE + MOCLDY    34  32  92 NE3       30.57S

$$

INZ028-029-035-036-043>045-051>053-220200-
WEST CENTRAL INDIANA

CITY           SKY/WX    TMP DP  RH WIND       PRES   REMARKS
GREENCASTLE +  LGT RAIN  36  32  87 N9        30.50R WCI  29
LAFAYETTE      CLOUDY    34  30  85 N9        30.56R WCI  27
TERRE HAUTE    CLOUDY    37  33  85 NE12      30.50R WCI  29

$$

INZ030>032-037>040-046>048-054>057-064-065-220200-
CENTRAL INDIANA

CITY           SKY/WX    TMP DP  RH WIND       PRES   REMARKS
GREENWOOD *+   CLOUDY   N/A N/A N/A NE8       30.50S
INDIANAPOLIS   LGT RAIN  37  35  92 NE14      30.49F WCI  28
-EAGLE CREEK   LGT RAIN  37  34  89 NE9       30.49F WCI  30
KOKOMO +       CLOUDY    36  32  85 NE12      30.54S WCI  28
MT COMFORT *+  CLOUDY    37  37 100 NE12      30.51S WCI  30
SHELBYVILLE    LGT RAIN  40  36  86 NE8       30.49F WCI  34

$$

INZ033-034-041-042-049-050-058-059-220200-
EAST CENTRAL INDIANA

CITY           SKY/WX    TMP DP  RH WIND       PRES   REMARKS
MUNCIE         LGT RAIN  39  35  86 NE12      30.52F WCI  32
RICHMOND +     LGT RAIN  36  36 100 NE14      30.50F WCI  27

$$

INZ060-061-067>069-081>083-085>088-220200-
SOUTHWEST INDIANA

CITY           SKY/WX    TMP DP  RH WIND       PRES   REMARKS
EVANSVILLE     LGT RAIN  41  40  96 NE8       30.43F
HUNTINGBURG +  LGT RAIN  42  40  92 NE9       30.45F

$$

INZ062-063-066-070>080-084-089>092-220200-
SOUTH CENTRAL AND SOUTHEAST INDIANA

CITY           SKY/WX    TMP DP  RH WIND       PRES   REMARKS
BLOOMINGTON    LGT RAIN  38  36  92 E9        30.45F FOG     WCI  31
FRENCH LICK *+ CLOUDY    37 N/A N/A NE13      30.45F WCI  29
SEYMOUR +      RAIN      41  39  93 N8G16     30.49S

$$




USA.gov is the U.S. government's official web portal to all federal, state and local government web resources and services.